| time (UTC) | temp F | wind direction | speed MPH | gust MPH | rain 1hr in | rain 24hr in | rain mn in | humidity % | barometer mb |
| 20260906075700 | 55 | 38 | 0.0 | 0.0 | 0.00 | 0.00 | 0.00 | 99 | 1015.8 |
| 20260906075154 | 55 | 38 | 0.0 | 0.0 | 0.00 | 0.00 | 0.00 | 99 | 1015.7 |
| 20260906074649 | 55 | 38 | 0.0 | 0.0 | 0.00 | 0.00 | 0.00 | 99 | 1015.7 |
| 20260906074143 | 56 | 38 | 0.0 | 0.0 | 0.00 | 0.00 | 0.00 | 99 | 1015.8 |
| 20260906073638 | 55 | 38 | 0.0 | 0.0 | 0.00 | 0.00 | 0.00 | 99 | 1015.8 |
| 20260906073134 | 55 | 38 | 0.0 | 0.0 | 0.00 | 0.00 | 0.00 | 99 | 1015.8 |
| 20260906072629 | 55 | 38 | 0.0 | 0.0 | 0.00 | 0.00 | 0.00 | 99 | 1015.7 |
| 20260906072124 | 55 | 38 | 0.0 | 0.0 | 0.00 | 0.00 | 0.00 | 99 | 1015.8 |
| 20260906071620 | 56 | 38 | 0.0 | 0.0 | 0.00 | 0.00 | 0.00 | 99 | 1015.9 |
| 20260906071115 | 56 | 38 | 0.0 | 0.0 | 0.00 | 0.00 | 0.00 | 99 | 1015.7 |
| 20260906070612 | 56 | 38 | 0.0 | 0.0 | 0.00 | 0.00 | 0.00 | 99 | 1015.9 |
| 20260906070107 | 56 | 38 | 0.0 | 0.0 | 0.00 | 0.00 | 0.00 | 98 | 1015.7 |
| 20260906065607 | 56 | 38 | 0.0 | 0.0 | 0.00 | 0.00 | 0.00 | 98 | 1015.6 |
| 20260906065102 | 56 | 38 | 0.0 | 0.0 | 0.00 | 0.00 | 0.00 | 98 | 1015.7 |
| 20260906064557 | 57 | 38 | 0.0 | 0.0 | 0.00 | 0.00 | 0.00 | 98 | 1015.6 |
| 20260906064052 | 57 | 38 | 0.0 | 0.0 | 0.00 | 0.00 | 0.00 | 98 | 1015.4 |
| 20260906063547 | 57 | 38 | 0.0 | 0.0 | 0.00 | 0.00 | 0.00 | 98 | 1015.8 |
| 20260906063043 | 57 | 38 | 0.0 | 0.0 | 0.00 | 0.00 | 0.00 | 98 | 1015.6 |
| 20260906062538 | 57 | 38 | 0.0 | 0.0 | 0.00 | 0.00 | 0.00 | 98 | 1015.6 |
| 20260906062032 | 57 | 38 | 0.0 | 0.0 | 0.00 | 0.00 | 0.00 | 98 | 1015.7 |
| 20260906061529 | 57 | 38 | 0.0 | 0.0 | 0.00 | 0.00 | 0.00 | 98 | 1015.7 |
| 20260906061027 | 57 | 38 | 0.0 | 0.0 | 0.00 | 0.00 | 0.00 | 98 | 1015.6 |
| 20260906060525 | 57 | 38 | 0.0 | 0.0 | 0.00 | 0.00 | 0.00 | 98 | 1015.6 |
| 20260906060021 | 57 | 38 | 0.0 | 0.0 | 0.00 | 0.00 | 0.00 | 98 | 1015.5 |
| 20260906055517 | 57 | 38 | 0.0 | 0.0 | 0.00 | 0.00 | 0.00 | 98 | 1015.5 |
| 20260906055012 | 57 | 38 | 0.0 | 0.0 | 0.00 | 0.00 | 0.00 | 98 | 1015.5 |
| 20260906054507 | 58 | 38 | 0.0 | 0.0 | 0.00 | 0.00 | 0.00 | 98 | 1015.6 |
| 20260906054003 | 58 | 38 | 0.0 | 0.0 | 0.00 | 0.00 | 0.00 | 98 | 1015.5 |
| 20260906053459 | 58 | 38 | 0.0 | 0.0 | 0.00 | 0.00 | 0.00 | 98 | 1015.4 |
| 20260906052954 | 57 | 38 | 0.0 | 0.0 | 0.00 | 0.00 | 0.00 | 98 | 1015.5 |
| 20260906052450 | 57 | 38 | 0.0 | 0.0 | 0.00 | 0.00 | 0.00 | 97 | 1015.4 |
| 20260906051947 | 57 | 38 | 0.0 | 0.0 | 0.00 | 0.00 | 0.00 | 97 | 1015.4 |
| 20260906051442 | 58 | 38 | 0.0 | 0.0 | 0.00 | 0.00 | 0.00 | 97 | 1015.5 |
| 20260906050937 | 58 | 38 | 0.0 | 0.0 | 0.00 | 0.00 | 0.00 | 97 | 1015.5 |
| 20260906050437 | 58 | 38 | 0.0 | 0.0 | 0.00 | 0.00 | 0.00 | 97 | 1015.2 |
| 20260906045936 | 59 | 38 | 0.0 | 0.0 | 0.00 | 0.00 | 0.00 | 97 | 1015.3 |
| 20260906045435 | 59 | 38 | 0.0 | 0.0 | 0.00 | 0.00 | 0.00 | 97 | 1015.4 |
| 20260906044931 | 59 | 38 | 0.0 | 0.0 | 0.00 | 0.00 | 0.00 | 97 | 1015.3 |
| 20260906044426 | 59 | 38 | 0.0 | 0.0 | 0.00 | 0.00 | 0.00 | 96 | 1015.1 |
| 20260906043922 | 59 | 38 | 0.0 | 0.0 | 0.00 | 0.00 | 0.00 | 96 | 1015.2 |
| 20260906043417 | 59 | 38 | 0.0 | 0.0 | 0.00 | 0.00 | 0.00 | 96 | 1015.5 |
| 20260906042913 | 60 | 38 | 0.0 | 0.0 | 0.00 | 0.00 | 0.00 | 96 | 1015.5 |
| 20260906042412 | 60 | 38 | 1.0 | 0.0 | 0.00 | 0.00 | 0.00 | 96 | 1015.4 |
| 20260906041907 | 59 | 38 | 0.0 | 1.0 | 0.00 | 0.00 | 0.00 | 95 | 1015.6 |
| 20260906041403 | 59 | 38 | 0.0 | 1.0 | 0.00 | 0.00 | 0.00 | 94 | 1015.5 |
| 20260906040903 | 59 | 38 | 0.0 | 0.0 | 0.00 | 0.00 | 0.00 | 93 | 1015.7 |
| 20260906040358 | 59 | 38 | 0.0 | 0.0 | 0.00 | 0.00 | 0.00 | 93 | 1015.6 |
| 20260906035853 | 59 | 39 | 0.0 | 0.0 | 0.00 | 0.01 | 0.01 | 93 | 1015.6 |
| 20260906035349 | 60 | 39 | 0.0 | 0.0 | 0.00 | 0.01 | 0.01 | 91 | 1015.5 |
| 20260906034843 | 60 | 39 | 0.0 | 0.0 | 0.00 | 0.01 | 0.01 | 91 | 1015.5 |
| 20260906034338 | 60 | 38 | 0.0 | 0.0 | 0.00 | 0.01 | 0.01 | 91 | 1015.5 |
| 20260906033834 | 60 | 38 | 0.0 | 0.0 | 0.00 | 0.01 | 0.01 | 90 | 1015.6 |
| 20260906033333 | 60 | 39 | 0.0 | 1.0 | 0.00 | 0.01 | 0.01 | 90 | 1015.6 |
| 20260906032830 | 60 | 38 | 0.0 | 0.0 | 0.00 | 0.01 | 0.01 | 90 | 1015.5 |
| 20260906032326 | 60 | 38 | 0.0 | 0.0 | 0.00 | 0.01 | 0.01 | 90 | 1015.5 |
| 20260906031821 | 60 | 38 | 0.0 | 1.0 | 0.00 | 0.01 | 0.01 | 90 | 1015.6 |
| 20260906031316 | 60 | 43 | 0.0 | 0.0 | 0.00 | 0.01 | 0.01 | 89 | 1015.7 |
| 20260906030815 | 61 | 43 | 0.0 | 0.0 | 0.00 | 0.01 | 0.01 | 89 | 1015.5 |
| 20260906030311 | 61 | 44 | 0.0 | 0.0 | 0.00 | 0.01 | 0.01 | 87 | 1015.4 |
| 20260906025810 | 62 | 44 | 0.0 | 0.0 | 0.00 | 0.01 | 0.01 | 87 | 1015.3 |
| 20260906025259 | 61 | 355 | 0.0 | 0.0 | 0.00 | 0.01 | 0.01 | 88 | 1015.5 |
| 20260906024758 | 61 | 354 | 0.0 | 0.0 | 0.00 | 0.01 | 0.01 | 91 | 1015.5 |
| 20260906024258 | 60 | 354 | 0.0 | 0.0 | 0.00 | 0.01 | 0.01 | 91 | 1015.6 |
| 20260906023753 | 61 | 354 | 0.0 | 0.0 | 0.00 | 0.01 | 0.01 | 90 | 1015.3 |
| 20260906023249 | 61 | 354 | 0.0 | 0.0 | 0.00 | 0.01 | 0.01 | 90 | 1015.3 |
| 20260906022744 | 61 | 354 | 0.0 | 0.0 | 0.00 | 0.01 | 0.01 | 90 | 1015.2 |
| 20260906022239 | 62 | 354 | 0.0 | 0.0 | 0.00 | 0.01 | 0.01 | 88 | 1015.4 |
| 20260906021736 | 62 | 354 | 0.0 | 0.0 | 0.00 | 0.01 | 0.01 | 88 | 1015.2 |
| 20260906021234 | 62 | 354 | 0.0 | 0.0 | 0.00 | 0.01 | 0.01 | 88 | 1015.3 |
| 20260906020729 | 62 | 354 | 1.0 | 1.0 | 0.00 | 0.01 | 0.01 | 88 | 1015.4 |
| 20260906020224 | 62 | 354 | 0.0 | 1.0 | 0.00 | 0.01 | 0.01 | 89 | 1015.2 |
| 20260906015724 | 62 | 353 | 0.0 | 1.0 | 0.00 | 0.01 | 0.01 | 90 | 1015.4 |
| 20260906015222 | 61 | 353 | 1.0 | 1.0 | 0.00 | 0.01 | 0.01 | 92 | 1015.1 |
| 20260906014716 | 61 | 353 | 0.0 | 0.0 | 0.00 | 0.01 | 0.01 | 92 | 1015.1 |
| 20260906014213 | 61 | 353 | 0.0 | 0.0 | 0.00 | 0.01 | 0.01 | 92 | 1015.1 |
| 20260906013708 | 61 | 353 | 0.0 | 0.0 | 0.00 | 0.01 | 0.01 | 91 | 1015.0 |
| 20260906013208 | 62 | 353 | 0.0 | 0.0 | 0.00 | 0.01 | 0.01 | 90 | 1015.0 |
| 20260906012703 | 62 | 353 | 0.0 | 0.0 | 0.00 | 0.01 | 0.01 | 89 | 1015.0 |
| 20260906012158 | 62 | 353 | 0.0 | 0.0 | 0.00 | 0.01 | 0.01 | 88 | 1015.2 |
| 20260906011654 | 62 | 353 | 0.0 | 0.0 | 0.00 | 0.01 | 0.01 | 87 | 1015.1 |
| 20260906011148 | 63 | 353 | 0.0 | 0.0 | 0.00 | 0.01 | 0.01 | 85 | 1015.0 |
| 20260906010644 | 63 | 353 | 0.0 | 0.0 | 0.00 | 0.01 | 0.01 | 84 | 1015.0 |
| 20260906010140 | 64 | 353 | 0.0 | 0.0 | 0.00 | 0.01 | 0.01 | 83 | 1014.9 |
| 20260906005639 | 64 | 353 | 0.0 | 0.0 | 0.00 | 0.01 | 0.01 | 80 | 1015.0 |
| 20260906005138 | 65 | 353 | 0.0 | 0.0 | 0.00 | 0.01 | 0.01 | 79 | 1015.0 |
| 20260906004638 | 65 | 353 | 0.0 | 0.0 | 0.00 | 0.01 | 0.01 | 78 | 1014.9 |
| 20260906004133 | 66 | 353 | 0.0 | 0.0 | 0.00 | 0.01 | 0.01 | 75 | 1014.8 |
| 20260906003628 | 66 | 38 | 0.0 | 1.0 | 0.00 | 0.01 | 0.01 | 74 | 1014.8 |
| 20260906003124 | 66 | 39 | 0.0 | 1.0 | 0.00 | 0.01 | 0.01 | 73 | 1014.7 |
| 20260906002619 | 67 | 39 | 0.0 | 0.0 | 0.00 | 0.01 | 0.01 | 72 | 1014.8 |
| 20260906002113 | 67 | 39 | 0.0 | 0.0 | 0.00 | 0.01 | 0.01 | 72 | 1014.7 |
| 20260906001608 | 68 | 39 | 0.0 | 1.0 | 0.00 | 0.01 | 0.01 | 68 | 1014.7 |
| 20260906001103 | 69 | 39 | 1.0 | 1.0 | 0.00 | 0.01 | 0.01 | 66 | 1014.7 |
| 20260906000559 | 69 | 39 | 1.0 | 4.0 | 0.00 | 0.01 | 0.01 | 65 | 1014.5 |
| 20260906000054 | 69 | 32 | 1.0 | 4.0 | 0.00 | 0.01 | 0.01 | 63 | 1014.7 |
| 20260905235553 | 70 | 358 | 5.0 | 5.0 | 0.00 | 0.01 | 0.01 | 63 | 1014.6 |
| 20260905235048 | 70 | 28 | 3.0 | 4.0 | 0.00 | 0.01 | 0.01 | 62 | 1014.5 |
| 20260905234544 | 70 | 343 | 2.0 | 4.0 | 0.00 | 0.01 | 0.01 | 62 | 1014.4 |
| 20260905234039 | 71 | 18 | 5.0 | 12.0 | 0.00 | 0.01 | 0.01 | 62 | 1014.6 |
| 20260905233538 | 71 | 34 | 3.0 | 5.0 | 0.00 | 0.01 | 0.01 | 63 | 1014.4 |
| 20260905233038 | 71 | 26 | 2.0 | 10.0 | 0.00 | 0.01 | 0.01 | 65 | 1014.4 |
| 20260905232534 | 71 | 30 | 5.0 | 7.0 | 0.00 | 0.01 | 0.01 | 67 | 1014.3 |
| 20260905232029 | 72 | 14 | 2.0 | 4.0 | 0.00 | 0.01 | 0.01 | 67 | 1014.2 |
| 20260905231524 | 72 | 50 | 1.0 | 5.0 | 0.00 | 0.01 | 0.01 | 67 | 1014.2 |
| 20260905231021 | 73 | 65 | 3.0 | 8.0 | 0.00 | 0.01 | 0.01 | 66 | 1014.1 |
| 20260905230520 | 73 | 61 | 9.0 | 11.0 | 0.00 | 0.01 | 0.01 | 65 | 1014.2 |
| 20260905230018 | 74 | 18 | 3.0 | 7.0 | 0.00 | 0.01 | 0.01 | 66 | 1014.0 |
| 20260905225513 | 74 | 40 | 8.0 | 11.0 | 0.00 | 0.01 | 0.01 | 65 | 1014.0 |
| 20260905225009 | 74 | 31 | 5.0 | 10.0 | 0.00 | 0.01 | 0.01 | 65 | 1014.0 |
| 20260905224504 | 74 | 56 | 4.0 | 8.0 | 0.00 | 0.01 | 0.01 | 66 | 1013.7 |
| 20260905224003 | 75 | 10 | 5.0 | 5.0 | 0.00 | 0.01 | 0.01 | 69 | 1013.7 |
| 20260905223501 | 75 | 42 | 5.0 | 7.0 | 0.00 | 0.01 | 0.01 | 69 | 1013.8 |
| 20260905222956 | 75 | 20 | 4.0 | 8.0 | 0.00 | 0.01 | 0.01 | 68 | 1013.7 |
| 20260905222456 | 75 | 344 | 4.0 | 5.0 | 0.00 | 0.01 | 0.01 | 69 | 1013.5 |
| 20260905221951 | 75 | 11 | 1.0 | 4.0 | 0.00 | 0.01 | 0.01 | 70 | 1013.7 |
| 20260905221447 | 75 | 347 | 3.0 | 5.0 | 0.00 | 0.01 | 0.01 | 71 | 1013.5 |
| 20260905220943 | 75 | 18 | 4.0 | 5.0 | 0.00 | 0.01 | 0.01 | 71 | 1013.5 |
| 20260905220439 | 75 | 52 | 5.0 | 8.0 | 0.00 | 0.01 | 0.01 | 70 | 1013.5 |
| 20260905215938 | 76 | 2 | 9.0 | 14.0 | 0.00 | 0.01 | 0.01 | 69 | 1013.3 |
| 20260905215434 | 76 | 6 | 7.0 | 10.0 | 0.00 | 0.01 | 0.01 | 71 | 1013.4 |
| 20260905214930 | 76 | 352 | 4.0 | 4.0 | 0.00 | 0.01 | 0.01 | 71 | 1013.3 |
| 20260905214426 | 77 | 35 | 3.0 | 5.0 | 0.00 | 0.01 | 0.01 | 70 | 1013.3 |
| 20260905213926 | 77 | 5 | 5.0 | 8.0 | 0.00 | 0.01 | 0.01 | 69 | 1013.2 |
| 20260905213422 | 77 | 70 | 1.0 | 10.0 | 0.00 | 0.01 | 0.01 | 70 | 1013.4 |
| 20260905212917 | 77 | 23 | 2.0 | 7.0 | 0.00 | 0.01 | 0.01 | 72 | 1013.1 |
| 20260905212412 | 76 | 31 | 4.0 | 7.0 | 0.00 | 0.01 | 0.01 | 72 | 1013.2 |
| 20260905211911 | 76 | 2 | 6.0 | 7.0 | 0.00 | 0.01 | 0.01 | 72 | 1013.2 |
| 20260905211407 | 76 | 43 | 5.0 | 10.0 | 0.00 | 0.01 | 0.01 | 72 | 1013.3 |
| 20260905210903 | 77 | 33 | 3.0 | 7.0 | 0.00 | 0.01 | 0.01 | 72 | 1013.2 |
| 20260905210357 | 77 | 24 | 2.0 | 3.0 | 0.00 | 0.01 | 0.01 | 72 | 1013.1 |
| 20260905205856 | 76 | 354 | 2.0 | 4.0 | 0.00 | 0.01 | 0.01 | 73 | 1013.1 |
| 20260905205351 | 76 | 37 | 2.0 | 5.0 | 0.00 | 0.01 | 0.01 | 73 | 1013.2 |
| 20260905204850 | 76 | 10 | 5.0 | 5.0 | 0.00 | 0.01 | 0.01 | 72 | 1013.2 |
| 20260905204347 | 76 | 4 | 4.0 | 5.0 | 0.00 | 0.01 | 0.01 | 72 | 1013.2 |
| 20260905203845 | 77 | 26 | 6.0 | 10.0 | 0.00 | 0.01 | 0.01 | 71 | 1013.3 |
| 20260905203341 | 78 | 84 | 3.0 | 4.0 | 0.00 | 0.01 | 0.01 | 70 | 1013.4 |
| 20260905202837 | 78 | 43 | 1.0 | 3.0 | 0.00 | 0.01 | 0.01 | 71 | 1013.4 |
| 20260905202331 | 78 | 74 | 2.0 | 4.0 | 0.00 | 0.01 | 0.01 | 72 | 1013.4 |
| 20260905201827 | 77 | 355 | 7.0 | 8.0 | 0.00 | 0.01 | 0.01 | 72 | 1013.3 |
| 20260905201323 | 77 | 44 | 2.0 | 7.0 | 0.00 | 0.01 | 0.01 | 71 | 1013.2 |
| 20260905200822 | 77 | 15 | 5.0 | 7.0 | 0.00 | 0.01 | 0.01 | 70 | 1013.4 |
| 20260905200318 | 77 | 35 | 5.0 | 7.0 | 0.00 | 0.01 | 0.01 | 69 | 1013.4 |
| 20260905195816 | 77 | 330 | 4.0 | 5.0 | 0.00 | 0.01 | 0.01 | 72 | 1013.3 |
| 20260905195311 | 77 | 52 | 3.0 | 4.0 | 0.00 | 0.01 | 0.01 | 69 | 1013.4 |
| 20260905194807 | 77 | 358 | 5.0 | 10.0 | 0.00 | 0.01 | 0.01 | 71 | 1013.5 |
| 20260905194301 | 77 | 31 | 3.0 | 5.0 | 0.00 | 0.01 | 0.01 | 72 | 1013.5 |
| 20260905193800 | 77 | 349 | 4.0 | 7.0 | 0.00 | 0.01 | 0.01 | 71 | 1013.7 |
| 20260905193255 | 77 | 23 | 5.0 | 7.0 | 0.00 | 0.01 | 0.01 | 71 | 1013.5 |
| 20260905192751 | 77 | 355 | 8.0 | 8.0 | 0.00 | 0.01 | 0.01 | 72 | 1013.4 |
| 20260905192247 | 77 | 328 | 6.0 | 8.0 | 0.00 | 0.01 | 0.01 | 72 | 1013.5 |
| 20260905191747 | 77 | 47 | 4.0 | 5.0 | 0.00 | 0.01 | 0.01 | 73 | 1013.7 |
| 20260905191245 | 76 | 38 | 4.0 | 5.0 | 0.00 | 0.01 | 0.01 | 74 | 1013.7 |
| 20260905190743 | 77 | 45 | 4.0 | 8.0 | 0.00 | 0.01 | 0.01 | 73 | 1013.8 |
| 20260905190243 | 77 | 43 | 5.0 | 8.0 | 0.00 | 0.01 | 0.01 | 72 | 1013.9 |
| 20260905185742 | 77 | 59 | 2.0 | 3.0 | 0.00 | 0.01 | 0.01 | 72 | 1013.8 |
| 20260905185237 | 77 | 3 | 3.0 | 4.0 | 0.00 | 0.01 | 0.01 | 73 | 1014.0 |
| 20260905184731 | 77 | 47 | 7.0 | 7.0 | 0.00 | 0.01 | 0.01 | 73 | 1014.0 |
| 20260905184230 | 77 | 9 | 9.0 | 10.0 | 0.00 | 0.01 | 0.01 | 72 | 1014.0 |
| 20260905183729 | 77 | 8 | 8.0 | 11.0 | 0.00 | 0.01 | 0.01 | 72 | 1014.1 |
| 20260905183225 | 77 | 33 | 5.0 | 11.0 | 0.00 | 0.01 | 0.01 | 75 | 1014.1 |
| 20260905182725 | 77 | 74 | 1.0 | 4.0 | 0.00 | 0.01 | 0.01 | 74 | 1013.9 |
| 20260905182224 | 77 | 61 | 3.0 | 5.0 | 0.00 | 0.01 | 0.01 | 73 | 1013.9 |
| 20260905181720 | 77 | 34 | 4.0 | 4.0 | 0.00 | 0.01 | 0.01 | 75 | 1014.0 |
| 20260905181218 | 76 | 67 | 2.0 | 5.0 | 0.00 | 0.01 | 0.01 | 76 | 1014.0 |
| 20260905180713 | 75 | 6 | 8.0 | 10.0 | 0.00 | 0.01 | 0.01 | 77 | 1014.0 |
| 20260905180209 | 76 | 359 | 6.0 | 10.0 | 0.00 | 0.01 | 0.01 | 77 | 1014.3 |
| 20260905175708 | 76 | 357 | 11.0 | 11.0 | 0.00 | 0.01 | 0.01 | 78 | 1014.2 |
| 20260905175203 | 76 | 35 | 5.0 | 8.0 | 0.00 | 0.01 | 0.01 | 78 | 1014.2 |
| 20260905174658 | 76 | 5 | 7.0 | 8.0 | 0.00 | 0.01 | 0.01 | 75 | 1014.1 |
| 20260905174154 | 75 | 355 | 4.0 | 7.0 | 0.00 | 0.01 | 0.01 | 79 | 1014.3 |
| 20260905173650 | 75 | 59 | 7.0 | 10.0 | 0.00 | 0.01 | 0.01 | 78 | 1014.4 |
| 20260905173145 | 75 | 26 | 7.0 | 11.0 | 0.00 | 0.01 | 0.01 | 79 | 1014.2 |
| 20260905172645 | 75 | 30 | 6.0 | 7.0 | 0.00 | 0.01 | 0.01 | 79 | 1014.5 |
| 20260905172139 | 75 | 42 | 2.0 | 4.0 | 0.00 | 0.01 | 0.01 | 80 | 1014.3 |
| 20260905171635 | 75 | 33 | 3.0 | 7.0 | 0.00 | 0.01 | 0.01 | 81 | 1014.4 |
| 20260905171131 | 75 | 46 | 3.0 | 5.0 | 0.00 | 0.01 | 0.01 | 80 | 1014.4 |
| 20260905170627 | 75 | 81 | 2.0 | 8.0 | 0.00 | 0.01 | 0.01 | 81 | 1014.3 |
| 20260905170123 | 76 | 45 | 6.0 | 8.0 | 0.00 | 0.01 | 0.01 | 79 | 1014.6 |
| 20260905165617 | 75 | 41 | 1.0 | 4.0 | 0.00 | 0.01 | 0.01 | 80 | 1014.3 |
| 20260905165112 | 75 | 52 | 5.0 | 7.0 | 0.00 | 0.01 | 0.01 | 82 | 1014.4 |
| 20260905164607 | 75 | 34 | 5.0 | 8.0 | 0.00 | 0.01 | 0.01 | 80 | 1014.5 |
| 20260905164101 | 75 | 40 | 3.0 | 4.0 | 0.00 | 0.01 | 0.01 | 79 | 1014.6 |
| 20260905163552 | 75 | 24 | 3.0 | 5.0 | 0.00 | 0.01 | 0.01 | 79 | 1014.5 |
| 20260905163048 | 75 | 47 | 2.0 | 4.0 | 0.00 | 0.01 | 0.01 | 81 | 1014.6 |
| 20260905162544 | 75 | 19 | 2.0 | 3.0 | 0.00 | 0.01 | 0.01 | 81 | 1014.6 |
| 20260905162043 | 75 | 11 | 3.0 | 5.0 | 0.00 | 0.01 | 0.01 | 80 | 1014.6 |
| 20260905161543 | 75 | 4 | 7.0 | 8.0 | 0.00 | 0.01 | 0.01 | 79 | 1014.6 |
| 20260905161041 | 75 | 1 | 5.0 | 7.0 | 0.00 | 0.01 | 0.01 | 81 | 1014.6 |
| 20260905160539 | 75 | 23 | 3.0 | 5.0 | 0.00 | 0.01 | 0.01 | 80 | 1014.6 |
| 20260905160034 | 75 | 89 | 2.0 | 7.0 | 0.00 | 0.01 | 0.01 | 80 | 1014.7 |
| 20260905155534 | 75 | 95 | 3.0 | 4.0 | 0.00 | 0.01 | 0.01 | 80 | 1014.8 |
| 20260905155033 | 75 | 37 | 3.0 | 5.0 | 0.00 | 0.01 | 0.01 | 80 | 1014.8 |
| 20260905154528 | 75 | 351 | 4.0 | 5.0 | 0.00 | 0.01 | 0.01 | 82 | 1014.6 |
| 20260905154024 | 75 | 8 | 4.0 | 4.0 | 0.00 | 0.01 | 0.01 | 83 | 1014.7 |
| 20260905153520 | 75 | 31 | 5.0 | 5.0 | 0.00 | 0.01 | 0.01 | 82 | 1014.8 |
| 20260905153019 | 75 | 6 | 2.0 | 3.0 | 0.00 | 0.01 | 0.01 | 82 | 1014.9 |
| 20260905152519 | 75 | 59 | 1.0 | 3.0 | 0.00 | 0.01 | 0.01 | 82 | 1014.7 |
| 20260905152015 | 75 | 0 | 1.0 | 3.0 | 0.00 | 0.01 | 0.01 | 84 | 1014.5 |
| 20260905151510 | 75 | 34 | 2.0 | 3.0 | 0.00 | 0.01 | 0.01 | 83 | 1014.4 |
| 20260905151005 | 75 | 34 | 2.0 | 1.0 | 0.00 | 0.01 | 0.01 | 84 | 1014.5 |
| 20260905150500 | 75 | 34 | 0.0 | 1.0 | 0.00 | 0.01 | 0.01 | 83 | 1014.3 |
| 20260905145956 | 75 | 33 | 0.0 | 0.0 | 0.00 | 0.01 | 0.01 | 83 | 1014.5 |
| 20260905145451 | 75 | 12 | 0.0 | 0.0 | 0.00 | 0.01 | 0.01 | 84 | 1014.3 |
| 20260905144950 | 74 | 12 | 0.0 | 1.0 | 0.00 | 0.01 | 0.01 | 84 | 1014.3 |
| 20260905144446 | 74 | 11 | 0.0 | 1.0 | 0.00 | 0.01 | 0.01 | 86 | 1014.3 |
| 20260905143945 | 74 | 51 | 1.0 | 1.0 | 0.00 | 0.01 | 0.01 | 86 | 1014.1 |
| 20260905143444 | 74 | 69 | 2.0 | 1.0 | 0.00 | 0.01 | 0.01 | 87 | 1014.1 |
| 20260905142939 | 73 | 40 | 1.0 | 3.0 | 0.00 | 0.01 | 0.01 | 89 | 1014.1 |
| 20260905142438 | 73 | 22 | 3.0 | 4.0 | 0.00 | 0.01 | 0.01 | 89 | 1014.3 |
| 20260905141933 | 73 | 37 | 1.0 | 1.0 | 0.00 | 0.01 | 0.01 | 91 | 1014.1 |
| 20260905141428 | 72 | 37 | 2.0 | 3.0 | 0.00 | 0.01 | 0.01 | 93 | 1014.1 |
| 20260905140924 | 71 | 33 | 3.0 | 3.0 | 0.00 | 0.01 | 0.01 | 97 | 1014.1 |
| 20260905140420 | 71 | 69 | 2.0 | 3.0 | 0.00 | 0.01 | 0.01 | 99 | 1014.0 |
| 20260905135918 | 70 | 27 | 3.0 | 3.0 | 0.00 | 0.01 | 0.01 | 99 | 1014.0 |
| 20260905135414 | 70 | 23 | 1.0 | 3.0 | 0.00 | 0.01 | 0.01 | 99 | 1014.1 |
| 20260905134909 | 70 | 13 | 3.0 | 5.0 | 0.00 | 0.01 | 0.01 | 99 | 1014.1 |
| 20260905134408 | 70 | 23 | 3.0 | 4.0 | 0.00 | 0.01 | 0.01 | 99 | 1014.0 |
| 20260905133903 | 69 | 22 | 3.0 | 3.0 | 0.00 | 0.01 | 0.01 | 99 | 1014.1 |
| 20260905133358 | 69 | 23 | 1.0 | 1.0 | 0.00 | 0.01 | 0.01 | 99 | 1014.3 |
| 20260905132857 | 69 | 22 | 1.0 | 1.0 | 0.00 | 0.01 | 0.01 | 99 | 1014.4 |
| 20260905132352 | 69 | 22 | 0.0 | 0.0 | 0.00 | 0.01 | 0.01 | 99 | 1014.2 |
| 20260905131846 | 69 | 22 | 0.0 | 0.0 | 0.00 | 0.01 | 0.01 | 99 | 1014.4 |
| 20260905131342 | 69 | 22 | 1.0 | 1.0 | 0.00 | 0.01 | 0.01 | 99 | 1014.6 |
| 20260905130837 | 69 | 23 | 0.0 | 0.0 | 0.00 | 0.01 | 0.01 | 99 | 1014.8 |
| 20260905130336 | 69 | 22 | 0.0 | 0.0 | 0.00 | 0.01 | 0.01 | 99 | 1014.5 |
| 20260905125831 | 69 | 22 | 0.0 | 0.0 | 0.00 | 0.01 | 0.01 | 99 | 1014.6 |
| 20260905125326 | 69 | 23 | 0.0 | 0.0 | 0.00 | 0.01 | 0.01 | 99 | 1014.5 |
| 20260905124822 | 69 | 23 | 1.0 | 1.0 | 0.00 | 0.01 | 0.01 | 99 | 1014.6 |
| 20260905124318 | 69 | 21 | 2.0 | 1.0 | 0.00 | 0.01 | 0.01 | 99 | 1014.6 |
| 20260905123813 | 68 | 15 | 0.0 | 0.0 | 0.00 | 0.01 | 0.01 | 99 | 1014.6 |
| 20260905123310 | 68 | 15 | 0.0 | 0.0 | 0.00 | 0.01 | 0.01 | 99 | 1014.5 |
| 20260905122809 | 68 | 15 | 0.0 | 0.0 | 0.00 | 0.01 | 0.01 | 99 | 1014.6 |
| 20260905122309 | 68 | 15 | 0.0 | 0.0 | 0.00 | 0.01 | 0.01 | 99 | 1014.7 |
| 20260905121805 | 68 | 15 | 0.0 | 0.0 | 0.00 | 0.01 | 0.01 | 99 | 1014.6 |
| 20260905121301 | 68 | 15 | 0.0 | 1.0 | 0.00 | 0.01 | 0.01 | 99 | 1014.5 |
| 20260905120759 | 68 | 14 | 0.0 | 1.0 | 0.00 | 0.01 | 0.01 | 99 | 1014.5 |
| 20260905120300 | 68 | 14 | 0.0 | 0.0 | 0.00 | 0.01 | 0.01 | 99 | 1014.5 |
| 20260905115754 | 68 | 14 | 0.0 | 1.0 | 0.00 | 0.01 | 0.01 | 99 | 1014.5 |
| 20260905115249 | 68 | 15 | 0.0 | 0.0 | 0.00 | 0.01 | 0.01 | 99 | 1014.2 |
| 20260905114748 | 67 | 15 | 0.0 | 1.0 | 0.00 | 0.01 | 0.01 | 99 | 1014.4 |
| 20260905114247 | 67 | 343 | 0.0 | 0.0 | 0.00 | 0.01 | 0.01 | 99 | 1014.2 |
| 20260905113746 | 67 | 343 | 0.0 | 0.0 | 0.00 | 0.01 | 0.01 | 99 | 1014.3 |
| 20260905113243 | 67 | 343 | 0.0 | 1.0 | 0.00 | 0.01 | 0.01 | 99 | 1014.3 |
| 20260905112737 | 67 | 343 | 0.0 | 1.0 | 0.00 | 0.01 | 0.01 | 99 | 1014.0 |
| 20260905112232 | 67 | 343 | 0.0 | 0.0 | 0.00 | 0.01 | 0.01 | 99 | 1013.9 |
| 20260905111727 | 67 | 343 | 1.0 | 1.0 | 0.00 | 0.01 | 0.01 | 99 | 1014.1 |
| 20260905111221 | 67 | 342 | 0.0 | 1.0 | 0.00 | 0.01 | 0.01 | 99 | 1014.1 |
| 20260905110720 | 67 | 342 | 0.0 | 0.0 | 0.00 | 0.01 | 0.01 | 99 | 1014.2 |
| 20260905110215 | 67 | 341 | 1.0 | 1.0 | 0.00 | 0.01 | 0.01 | 99 | 1014.1 |
| 20260905105711 | 67 | 341 | 0.0 | 0.0 | 0.00 | 0.01 | 0.01 | 99 | 1014.0 |
| 20260905105209 | 67 | 341 | 0.0 | 0.0 | 0.00 | 0.01 | 0.01 | 99 | 1014.2 |
| 20260905104704 | 67 | 341 | 0.0 | 0.0 | 0.00 | 0.01 | 0.01 | 99 | 1014.2 |
| 20260905104200 | 67 | 341 | 0.0 | 0.0 | 0.05 | 0.01 | 0.01 | 99 | 1014.5 |
| 20260905103655 | 67 | 341 | 0.0 | 0.0 | 0.05 | 0.01 | 0.01 | 99 | 1014.5 |
| 20260905103151 | 67 | 339 | 1.0 | 1.0 | 0.00 | 0.00 | 0.00 | 99 | 1014.6 |
| 20260905102646 | 67 | 338 | 0.0 | 0.0 | 0.00 | 0.00 | 0.00 | 99 | 1014.7 |
| 20260905102143 | 67 | 338 | 0.0 | 0.0 | 0.00 | 0.00 | 0.00 | 99 | 1014.6 |
| 20260905101641 | 67 | 338 | 0.0 | 0.0 | 0.00 | 0.00 | 0.00 | 99 | 1014.7 |
| 20260905101140 | 67 | 338 | 0.0 | 0.0 | 0.00 | 0.00 | 0.00 | 99 | 1014.5 |
| 20260905100636 | 67 | 337 | 0.0 | 1.0 | 0.00 | 0.00 | 0.00 | 99 | 1014.5 |
| 20260905100131 | 67 | 30 | 1.0 | 1.0 | 0.00 | 0.00 | 0.00 | 99 | 1014.3 |
| 20260905095624 | 67 | 30 | 0.0 | 0.0 | 0.00 | 0.00 | 0.00 | 99 | 1014.1 |
| 20260905095120 | 67 | 30 | 1.0 | 1.0 | 0.00 | 0.00 | 0.00 | 99 | 1013.9 |
| 20260905094615 | 68 | 30 | 0.0 | 1.0 | 0.00 | 0.00 | 0.00 | 99 | 1014.0 |
| 20260905094114 | 68 | 30 | 0.0 | 0.0 | 0.00 | 0.00 | 0.00 | 99 | 1013.9 |
| 20260905093614 | 68 | 30 | 0.0 | 0.0 | 0.00 | 0.00 | 0.00 | 99 | 1013.9 |
| 20260905093111 | 68 | 30 | 0.0 | 0.0 | 0.00 | 0.00 | 0.00 | 99 | 1013.9 |
| 20260905092610 | 68 | 30 | 1.0 | 1.0 | 0.00 | 0.00 | 0.00 | 99 | 1013.7 |
| 20260905092107 | 67 | 30 | 0.0 | 0.0 | 0.00 | 0.00 | 0.00 | 99 | 1013.5 |
| 20260905091606 | 67 | 30 | 0.0 | 1.0 | 0.00 | 0.00 | 0.00 | 99 | 1013.4 |
| 20260905091100 | 67 | 30 | 0.0 | 0.0 | 0.00 | 0.00 | 0.00 | 99 | 1013.2 |
| 20260905090554 | 67 | 30 | 1.0 | 1.0 | 0.00 | 0.00 | 0.00 | 99 | 1013.5 |
| 20260905090050 | 67 | 30 | 0.0 | 0.0 | 0.00 | 0.00 | 0.00 | 99 | 1013.7 |
| 20260905085548 | 67 | 30 | 0.0 | 0.0 | 0.00 | 0.00 | 0.00 | 99 | 1013.8 |
| 20260905085044 | 67 | 30 | 0.0 | 0.0 | 0.00 | 0.00 | 0.00 | 99 | 1013.8 |
| 20260905084543 | 67 | 30 | 0.0 | 0.0 | 0.00 | 0.00 | 0.00 | 99 | 1013.4 |
| 20260905084039 | 67 | 30 | 0.0 | 0.0 | 0.00 | 0.00 | 0.00 | 99 | 1013.5 |
| 20260905083533 | 66 | 30 | 0.0 | 1.0 | 0.00 | 0.00 | 0.00 | 99 | 1013.0 |
| 20260905083030 | 66 | 30 | 0.0 | 0.0 | 0.00 | 0.00 | 0.00 | 99 | 1013.2 |
| 20260905082525 | 66 | 30 | 1.0 | 1.0 | 0.00 | 0.00 | 0.00 | 99 | 1013.0 |
| 20260905082021 | 66 | 30 | 0.0 | 0.0 | 0.00 | 0.00 | 0.00 | 99 | 1012.9 |
| 20260905081515 | 66 | 30 | 1.0 | 1.0 | 0.00 | 0.00 | 0.00 | 99 | 1012.9 |
| 20260905081015 | 65 | 30 | 0.0 | 0.0 | 0.00 | 0.00 | 0.00 | 99 | 1013.3 |
| 20260905080509 | 65 | 30 | 0.0 | 0.0 | 0.00 | 0.00 | 0.00 | 99 | 1013.4 |
| 20260905080004 | 65 | 30 | 0.0 | 0.0 | 0.00 | 0.00 | 0.00 | 99 | 1013.4 |